Weather History for Point Lay, AK

Change the Weather History Date:

Friday, May 17, 2013

  Actual Average Record
Temperature  
Mean Temperature 9 °F -  
Max Temperature 15 °F 30 °F 44 °F (2004)
Min Temperature 3 °F 22 °F 3 °F (2013)
Degree Days  
Heating Degree Days 56    
Moisture  
Dew Point 4 °F    
Average Humidity 79    
Maximum Humidity 85    
Minimum Humidity 67    
Precipitation  
Precipitation 0.00 in - - ()
Sea Level Pressure  
Sea Level Pressure 29.59 in    
Wind  
Wind Speed 18 mph (SW)    
Max Wind Speed 23 mph    
Max Gust Speed -    
Visibility 8 miles    
Events Snow    
Averages and records for this station are not official NWS values.
T = Trace of Precipitation, MM = Missing Value Source: NWS Daily Summary

Daily Weather History Graph

Daily Weather History Graph

Search for Another Location

Airport:

Trip Planner

Search our weather history database for the weather conditions in past years. The results will help you decide how hot, cold, wet, or windy it might be!

Date:

Astronomy

May. 17, 2013 Rise Set
Actual Time 2:57 AM AKDT 2:16 AM AKDT
Civil Twilight Sun does not rise Sun does not rise
Nautical Twilight Sun does not rise Sun does not rise
Astronomical Twilight Sun does not rise Sun does not rise
Moon 1:08 PM AKDT (5/17) 4:23 AM AKDT (5/17)
Length of Visible Light 24h 00m
Length of Day
23h 18m
Waxing Crescent, 46% of the Moon is Illuminated
May 17
Waxing Crescent
May 17
First Quarter
May 24
Full
May 31
Last Quarter
Jun 8
New

Hourly Weather History & Observations

Time (AKDT) Temp. Windchill Dew Point Humidity Pressure Visibility Wind Dir Wind Speed Gust Speed Precip Events Conditions
12:03 AM 10.4 °F -8.6 °F 6.8 °F 85% 29.39 in 3.0 mi SSW 20.7 mph - 0.00 in   Mostly Cloudy
12:16 AM 8.6 °F -11.9 °F 5.0 °F 85% 29.40 in 3.0 mi SSW 23.0 mph - 0.00 in Snow Light Snow
12:22 AM 8.6 °F -11.4 °F 5.0 °F 85% 29.40 in 2.5 mi SSW 21.9 mph - 0.00 in Snow Light Snow
12:37 AM 8.6 °F -10.5 °F 5.0 °F 85% 29.41 in 5.0 mi SSW 19.6 mph - 0.00 in   Mostly Cloudy
12:56 AM 8.6 °F -10.0 °F 3.2 °F 79% 29.41 in 7.0 mi SSW 18.4 mph - N/A   Overcast
1:56 AM 7.2 °F -11.4 °F 3.0 °F 83% 29.44 in 4.0 mi SSW 17.3 mph - 0.00 in Snow Light Snow
2:29 AM 6.8 °F -11.8 °F 1.4 °F 79% 29.44 in 9.0 mi SSW 17.3 mph - 0.00 in   Overcast
2:42 AM 6.8 °F -12.9 °F 1.4 °F 79% 29.44 in 7.0 mi SSW 19.6 mph - 0.00 in   Mostly Cloudy
2:56 AM 6.1 °F -13.8 °F 2.1 °F 84% 29.45 in 7.0 mi SSW 19.6 mph - 0.00 in   Scattered Clouds
3:56 AM 5.0 °F -14.2 °F 1.0 °F 84% 29.47 in 10.0 mi SW 17.3 mph - N/A   Clear
4:42 AM 3.2 °F -16.5 °F -0.4 °F 85% 29.47 in 2.5 mi SSW 17.3 mph - N/A   Clear
4:49 AM 3.2 °F -17.6 °F -0.4 °F 85% 29.46 in 3.0 mi SSW 19.6 mph - N/A   Clear
4:56 AM 5.0 °F -15.7 °F 1.0 °F 84% 29.48 in - SW 20.7 mph - N/A   Clear
5:36 AM 6.8 °F -11.8 °F 3.2 °F 85% 29.49 in 10.0 mi SSW 17.3 mph - N/A   Mostly Cloudy
5:56 AM 8.1 °F -9.6 °F 3.0 °F 80% 29.51 in 10.0 mi SW 16.1 mph - N/A   Overcast
6:56 AM 8.1 °F -9.6 °F 4.1 °F 84% 29.52 in 10.0 mi SW 16.1 mph - N/A   Overcast
7:31 AM 8.6 °F -10.0 °F 3.2 °F 79% 29.51 in 10.0 mi SW 18.4 mph - N/A   Mostly Cloudy
7:56 AM 8.1 °F -9.0 °F 4.1 °F 84% 29.54 in 10.0 mi SW 15.0 mph - 0.00 in Snow Light Snow
8:10 AM 8.6 °F -10.5 °F 3.2 °F 79% 29.52 in 8.0 mi SW 19.6 mph - 0.00 in   Mostly Cloudy
8:47 AM 6.8 °F -11.8 °F 1.4 °F 79% 29.54 in 8.0 mi SW 17.3 mph - 0.00 in   Mostly Cloudy
8:56 AM 7.2 °F -11.4 °F 2.1 °F 80% 29.56 in 10.0 mi SW 17.3 mph - 0.00 in   Mostly Cloudy
9:03 AM 6.8 °F -11.3 °F 3.2 °F 85% 29.55 in 8.0 mi SW 16.1 mph - N/A   Mostly Cloudy
9:56 AM 8.6 °F -9.5 °F 3.2 °F 79% 29.57 in 7.0 mi SW 17.3 mph - N/A   Mostly Cloudy
10:12 AM 8.6 °F -10.0 °F 3.2 °F 79% 29.57 in 8.0 mi SW 18.4 mph - N/A   Scattered Clouds
10:56 AM 9.1 °F -8.2 °F 4.1 °F 80% 29.60 in 9.0 mi SW 16.1 mph - N/A   Clear
11:56 AM 10.0 °F -6.5 °F 5.0 °F 80% 29.63 in 10.0 mi SW 15.0 mph - N/A   Partly Cloudy
12:13 PM 10.4 °F -7.2 °F 5.0 °F 79% 29.62 in 9.0 mi SW 17.3 mph - N/A   Mostly Cloudy
12:56 PM 11.1 °F -6.2 °F 5.0 °F 76% 29.65 in 9.0 mi SW 17.3 mph - N/A   Mostly Cloudy
1:03 PM 10.4 °F -8.2 °F 5.0 °F 79% 29.64 in 9.0 mi SW 19.6 mph - N/A   Partly Cloudy
1:56 PM 12.0 °F -5.6 °F 6.1 °F 77% 29.68 in 10.0 mi SW 18.4 mph - N/A   Partly Cloudy
2:56 PM 13.1 °F -4.2 °F 7.2 °F 77% 29.70 in 10.0 mi SW 18.4 mph - N/A   Mostly Cloudy
3:56 PM 14.0 °F -1.4 °F 8.6 °F 79% 29.70 in 1.5 mi SW 15.0 mph - N/A Snow Light Snow
4:01 PM 14.0 °F -2.0 °F 8.6 °F 79% 29.70 in 3.0 mi SW 16.1 mph - 0.00 in Snow Light Snow
4:24 PM 14.0 °F -2.0 °F 8.6 °F 79% 29.71 in 2.5 mi WSW 16.1 mph - 0.00 in Snow Light Snow
4:32 PM 15.8 °F -0.2 °F 6.8 °F 68% 29.71 in 9.0 mi WSW 17.3 mph - 0.00 in Snow Light Snow
4:56 PM 14.0 °F -0.8 °F 7.2 °F 74% 29.74 in 9.0 mi SW 13.8 mph - 0.00 in   Partly Cloudy
5:56 PM 14.0 °F -1.4 °F 5.0 °F 67% 29.75 in 10.0 mi WSW 15.0 mph - N/A   Overcast
6:56 PM 13.1 °F -2.0 °F 4.1 °F 67% 29.77 in 10.0 mi WSW 13.8 mph - N/A   Overcast
7:56 PM 13.1 °F 0.1 °F 4.1 °F 67% 29.79 in 10.0 mi SW 10.4 mph - N/A   Overcast
8:56 PM 13.1 °F -0.7 °F 4.1 °F 67% 29.80 in 10.0 mi SW 11.5 mph - N/A   Mostly Cloudy
9:56 PM 12.0 °F 1.5 °F 4.1 °F 71% 29.81 in 10.0 mi SW 6.9 mph - N/A   Overcast
10:56 PM 12.0 °F 0.5 °F 5.0 °F 73% 29.82 in 10.0 mi SW 8.1 mph - N/A   Overcast
11:56 PM 11.1 °F 1.7 °F 5.0 °F 76% 29.83 in 10.0 mi SSW 5.8 mph - N/A   Overcast